Regional Weather Roundup
Issued by NWS Upton, NY

Current Version | Previous Version | Graphics & Text | Print | Product List | Glossary Off
Versions: 1 2 3 4 5 6 7 8 9 10 11 12 13 14 15 16 17 18 19 20 21 22 23 24 25 26 27 28 29 30 31 32 33 34 35 36 37 38 39 40 41 42 43 44 45 46 47 48 49 50

124
ASUS41 KOKX 161108
RWROKX

REGIONAL WEATHER ROUNDUP
NATIONAL WEATHER SERVICE NEW YORK NY
600 AM EST MON JAN 16 2017

NOTE: "FAIR" INDICATES FEW OR NO CLOUDS BELOW 12,000 FEET WITH NO
SIGNIFICANT WEATHER AND/OR OBSTRUCTIONS TO VISIBILITY.

NYZ071-072-176-178-NJZ106-104-161200-
NEW YORK CITY METRO AREA

CITY           SKY/WX    TMP DP  RH WIND       PRES   REMARKS
Central Park   CLEAR     30  17  58 N5        30.46R WCI  25
Wall St Helipt SUNNY     33  21  61 E5        30.46R WCI  29
Bronx Bot Gard NOT AVBL
LaGuardia APRT CLEAR     32  18  56 N5        30.45R WCI  27
Kennedy INTL   CLEAR     29  18  63 N6        30.46R WCI  23
Breezy Point     N/A    N/A N/A N/A N3          N/A
Newark/Liberty PTCLDY    27  19  72 NE6       30.45R WCI  20
Teterboro      CLEAR     26  19  74 CALM      30.45R
$$

NYZ177-179-078>081-161200-
LONG ISLAND NEW YORK

CITY           SKY/WX    TMP DP  RH WIND       PRES   REMARKS
Jones Beach      N/A    N/A N/A N/A N5          N/A
Matinecock PT    N/A     32 N/A N/A NE6         N/A  WCI  26
Farmingdale    CLEAR     26  18  71 N5        30.44S WCI  20
MacArthur/ISP  CLEAR     23  19  85 CALM      30.43S
Shirley        CLEAR     21  18  88 CALM      30.44S
Westhampton    CLEAR     12   9  87 NW3       30.45S
Southampton    NOT AVBL
Bridgehampton  NOT AVBL
East Hampton     N/A     17  14  90 CALM      30.43S
Montauk          N/A     22  18  85 CALM      30.44R
$$

NYZ052-065-067-161200-
HUDSON VALLEY

CITY           SKY/WX    TMP DP  RH WIND       PRES   REMARKS
White Plains   CLEAR     21  15  78 NW5       30.42R WCI  15
Newburgh       NOT AVBL
Montgomery     CLEAR     14  11  87 CALM      30.42S
Poughkeepsie   CLEAR     14  11  87 CALM      30.44S
Albany         CLEAR     15  10  80 CALM      30.43S
$$

NJZ001-105-106-008-010-013-015-019>022-104-161200-
NEW JERSEY

CITY           SKY/WX    TMP DP  RH WIND       PRES   REMARKS
Newark/Liberty PTCLDY    27  19  72 NE6       30.45R WCI  20
Teterboro      CLEAR     26  19  74 CALM      30.45R
Caldwell       CLEAR     20  16  84 CALM      30.46R
Somerville     CLEAR     15  11  83 CALM      30.45R
Linden           N/A     26  19  74 CALM      30.46S
Sussex         CLOUDY    12   9  87 CALM      30.43R
Andover          N/A     14  10  84 CALM      30.44R
Trenton        CLEAR     22  18  85 N5        30.44S WCI  16
Millville      CLEAR     21  20  96 CALM      30.46R
Atlantic City  CLEAR     24  18  77 CALM      30.45R
Wrightstown    CLEAR     22  18  83 CALM      30.41S
Toms River     CLEAR     14  12  92 CALM      30.45S
Belmar         CLEAR     22  19  89 NW6       30.45R WCI  14
$$

PAZ047>061-062-071-161200-
EASTERN PENNSYLVANIA

CITY           SKY/WX    TMP DP  RH WIND       PRES   REMARKS
Philadelphia   PTCLDY    28  19  69 N6        30.47R WCI  22
Allentown      CLOUDY    15  10  80 CALM      30.44S
Scranton       CLOUDY    13  10  88 E3        30.41R
$$

CTZ002-004>006-009-010-012-RIZ004-006-007-MAZ004-011-015-161200-
SOUTHERN NEW ENGLAND
 IN CT

CITY           SKY/WX    TMP DP  RH WIND       PRES   REMARKS
Bradley INTL   CLEAR     17  14  88 CALM      30.43S
Hartford       CLEAR     18  16  92 CALM      30.45S
Danbury        CLEAR     14  11  87 CALM      30.44R
Wtrbury/Oxford CLEAR     18   9  68 CALM      30.41R
Bridgeport     CLEAR     23  16  74 CALM      30.44S
Meriden        CLEAR     19  14  81 CALM      30.45R
New Haven      CLEAR     19  14  81 CALM      30.44S
Chester          N/A     23  14  68 NW3       30.41S
Groton         CLEAR     20  15  81 N5        30.43S WCI  13
Wilimantic     CLEAR     16  12  84 CALM      30.44S

 IN RI

CITY           SKY/WX    TMP DP  RH WIND       PRES   REMARKS
Providence     CLEAR     20  16  84 CALM      30.44S
Block Island   NOT AVBL
Westerly       CLEAR     19  13  77 CALM      30.44S
 IN MA

CITY           SKY/WX    TMP DP  RH WIND       PRES   REMARKS
Boston         CLEAR     26  15  63 CALM      30.43F
Worcester      CLEAR     20  11  68 W6        30.36S WCI  12
Westfield      CLEAR     14  11  87 CALM      30.42S
Provincetown   CLEAR     21  15  78 CALM      30.44R
Nantucket      CLEAR     22  15  75 CALM      30.43S
$$

ANZ330-335-338-340-345-350-353-355-161200-
COASTAL MARINE OBSERVATIONS


STATION/POSITION TIME  SKY/WX   TEMP    WIND        PRES    VSBY  WAVE
                                AIR SEA DIR/SP/G                  HT/PER
                 (UTC)          (F)     (DEG/KT/KT) (MB)    (MI)  (FT/S)
NY HARB ENTRANCE 0950            36 43   60/  8/ 12 1030.7          2/11
20 S FIRE ISLAND 1050            37 45   40/  8/ 10 1030.2          2/10
GREAT SOUTH BAY  NOT AVBL
23 SSW MONTAUK P 0950            37 48  350/  6/ 10 1030.8          2/10
15 E BARNEGAT LI 1030               45                N/A           2/11
HUDSON CANYON    0950            42 52              1030.1          2/11
KINGS POINT      1042            31 38              1030.8
EXECUTION ROCKS  1045            31     350/  8/  8   N/A
CENTRAL LI SOUND 1030            31     360/  4/  6   N/A           1
EASTERN LI SOUND NOT AVBL
ROBBINS REEF     1048            29     350/  5/  6 1031.3
$$


>>>>>>>>>>>>>>>>>>>>>>>>>>>> KEY <<<<<<<<<<<<<<<<<<<<<<<<<<<
>                                                          <
>     SKY/WX - Sky Condition/Present Weather               <
>     TMP    - Temperature in Fahrenheit                   <
>     DP     - Dew Point in Fahrenheit                     <
>     RH     - Relative Humidity in Percent                <
>     WIND   - Direction (from) and Speed in MPH           <
>     PRES   - Mean Sea Level Pressure (inches of Hg)      <
>     WCI    - Wind Chill Index                            <
>     VSB    - VISIBILITY IN MILES                         <
>     HX     - HEAT INDEX                                  <
>     TC     - TEMPERATURE IN CELSIUS                      <
>     VRB    - VARIABLE WIND DIRECTION                     <
>                                                          <
>>>>>>>>>>>>>>>>>>>>>>>>>>>> KEY <<<<<<<<<<<<<<<<<<<<<<<<<<<




USA.gov is the U.S. government's official web portal to all federal, state and local government web resources and services.